DW1289 Weather Reports


Display with metric or nautical units.
time (UTC)temp
F
wind
direction
speed
MPH
gust
MPH
rain 1hr
in
rain 24hr
in
rain mn
in
humidity
%
barometer
mb
20260508103016 43 203 1.0 3.0 0.00 0.00 0.00 85 1015.7
20260508102036 43 225 1.0 3.0 0.00 0.00 0.00 85 1015.7
20260508101016 43 248 2.0 3.0 0.00 0.00 0.00 86 1015.5
20260508100016 43 225 2.0 4.0 0.00 0.00 0.00 86 1015.6
20260508095016 43 225 2.0 5.0 0.00 0.00 0.00 86 1015.6
20260508094036 43 248 2.0 4.0 0.00 0.00 0.00 86 1015.8
20260508093016 42 248 2.0 4.0 0.00 0.00 0.00 86 1015.7
20260508092016 42 248 2.0 4.0 0.00 0.00 0.00 86 1015.8
20260508091016 42 225 1.0 4.0 0.00 0.00 0.00 86 1015.7
20260508090016 42 225 1.0 2.0 0.00 0.00 0.00 86 1015.8
20260508085036 42 225 1.0 3.0 0.00 0.00 0.00 86 1015.8
20260508084016 42 0.0 2.0 0.00 0.00 0.00 85 1015.8
20260508083016 42 0.0 2.0 0.00 0.00 0.00 85 1015.9
20260508082036 42 0.0 0.0 0.00 0.00 0.00 84 1015.8
20260508081016 42 0.0 0.0 0.00 0.00 0.00 83 1015.8
20260508080016 42 0.0 0.0 0.00 0.00 0.00 83 1015.9
20260508075016 42 0.0 0.0 0.00 0.00 0.00 83 1015.8
20260508074016 43 0.0 0.0 0.00 0.00 0.00 82 1015.8
20260508073016 43 0.0 0.0 0.00 0.00 0.00 82 1015.8
20260508072016 43 0.0 0.0 0.00 0.00 0.00 81 1015.9
20260508071016 43 0.0 0.0 0.00 0.00 0.00 81 1015.9
20260508070016 43 0.0 0.0 0.00 0.00 0.00 81 1015.9
20260508065016 44 0.0 0.0 0.00 0.00 0.00 80 1016.0
20260508064016 44 0.0 0.0 0.00 0.00 0.00 80 1016.1
20260508063016 44 0.0 0.0 0.00 0.00 0.00 80 1016.1
20260508062036 44 0.0 0.0 0.00 0.00 0.00 79 1016.2
20260508061016 45 0.0 0.0 0.00 0.00 0.00 79 1016.2
20260508060016 45 0.0 0.0 0.00 0.00 0.00 79 1016.3
20260508055036 45 0.0 2.0 0.00 0.00 0.00 79 1016.3
20260508054016 45 0.0 1.0 0.00 0.00 0.00 78 1016.4
20260508053036 45 0.0 1.0 0.00 0.00 0.00 78 1016.4
20260508052036 45 0.0 2.0 0.00 0.00 0.00 78 1016.5
20260508051016 46 0.0 2.0 0.00 0.00 0.00 78 1016.6
20260508050016 46 0.0 3.0 0.00 0.00 0.00 77 1016.7
20260508045016 46 0.0 0.0 0.00 0.00 0.00 75 1016.5
20260508044016 46 0.0 0.0 0.00 0.00 0.00 75 1016.4
20260508043016 46 0.0 0.0 0.00 0.00 0.00 75 1016.3
20260508042016 46 0.0 0.0 0.00 0.00 0.00 75 1016.3
20260508041036 47 0.0 0.0 0.00 0.00 0.00 75 1016.3
20260508040036 47 0.0 0.0 0.00 0.00 0.00 74 1016.4
20260508035036 47 0.0 0.0 0.00 0.00 0.00 73 1016.5
20260508034016 48 0.0 0.0 0.00 0.00 0.00 72 1016.5
20260508033016 48 0.0 0.0 0.00 0.00 0.00 71 1016.4
20260508032036 49 0.0 0.0 0.00 0.00 0.00 70 1016.4
20260508031036 49 0.0 0.0 0.00 0.00 0.00 69 1016.4
20260508030016 49 0.0 0.0 0.00 0.00 0.00 68 1016.5
20260508025016 50 0.0 0.0 0.00 0.00 0.00 67 1016.3
20260508024016 50 0.0 0.0 0.00 0.00 0.00 65 1016.3
20260508023016 51 0.0 0.0 0.00 0.00 0.00 65 1016.2
20260508022016 51 0.0 0.0 0.00 0.00 0.00 63 1016.1
20260508021016 52 0.0 0.0 0.00 0.00 0.00 62 1016.0
20260508020016 52 0.0 1.0 0.00 0.00 0.00 61 1015.9
20260508015016 53 0.0 0.0 0.00 0.00 0.00 61 1015.6
20260508014016 54 0.0 0.0 0.00 0.00 0.00 60 1015.6
20260508013037 54 0.0 0.0 0.00 0.00 0.00 58 1015.5
20260508012016 55 0.0 0.0 0.00 0.00 0.00 56 1015.5
20260508011016 56 0.0 2.0 0.00 0.00 0.00 55 1015.4
20260508010016 57 270 1.0 2.0 0.00 0.00 0.00 54 1015.1
20260508005016 58 0.0 2.0 0.00 0.00 0.00 52 1015.0
20260508004036 58 0.0 1.0 0.00 0.00 0.00 51 1014.8
20260508003016 59 0.0 1.0 0.00 0.00 0.00 49 1014.7
20260508002036 60 0.0 0.0 0.00 0.00 0.00 44 1014.6
20260508001016 61 0.0 2.0 0.00 0.00 0.00 41 1014.5
20260508000016 62 270 1.0 3.0 0.00 0.00 0.00 41 1014.5
20260507235016 62 270 1.0 4.0 0.00 0.00 0.00 37 1014.5
20260507234016 63 0.0 1.0 0.00 0.00 0.00 35 1014.4
20260507233016 64 0.0 3.0 0.00 0.00 0.00 35 1014.5
20260507232016 64 0 2.0 4.0 0.00 0.00 0.00 34 1014.6
20260507231016 64 0 1.0 4.0 0.00 0.00 0.00 35 1014.6
20260507230016 64 0.0 1.0 0.00 0.00 0.00 37 1014.7
20260507225016 64 248 2.0 7.0 0.00 0.00 0.00 37 1014.7
20260507224016 64 270 2.0 7.0 0.00 0.00 0.00 36 1014.8
20260507223016 64 248 3.0 8.0 0.00 0.00 0.00 38 1014.9
20260507222016 65 68 1.0 4.0 0.00 0.00 0.00 33 1014.8
20260507221016 65 248 2.0 5.0 0.00 0.00 0.00 37 1014.8
20260507220016 65 248 2.0 4.0 0.00 0.00 0.00 36 1014.7
20260507215016 65 248 3.0 7.0 0.00 0.00 0.00 36 1014.7
20260507214016 65 248 3.0 11.0 0.00 0.00 0.00 34 1014.8
20260507213016 65 90 1.0 3.0 0.00 0.00 0.00 35 1014.8
20260507212016 65 248 2.0 7.0 0.00 0.00 0.00 38 1014.7
20260507211036 65 315 3.0 8.0 0.00 0.00 0.00 35 1014.9
20260507210016 66 270 4.0 11.0 0.00 0.00 0.00 34 1015.1
20260507205016 66 248 4.0 12.0 0.00 0.00 0.00 36 1014.8
20260507204016 65 248 2.0 5.0 0.00 0.00 0.00 38 1015.0
20260507203016 66 270 3.0 9.0 0.00 0.00 0.00 35 1015.0
20260507202016 66 248 4.0 11.0 0.00 0.00 0.00 38 1015.1
20260507201036 66 248 2.0 6.0 0.00 0.00 0.00 39 1015.0
20260507200036 66 248 3.0 9.0 0.00 0.00 0.00 38 1015.2
20260507195016 66 248 3.0 8.0 0.00 0.00 0.00 34 1015.1
20260507194016 66 248 4.0 9.0 0.00 0.00 0.00 41 1015.3
20260507193016 65 248 4.0 9.0 0.00 0.00 0.00 34 1015.3
20260507192036 66 248 2.0 8.0 0.00 0.00 0.00 37 1015.3
20260507191016 65 248 4.0 10.0 0.00 0.00 0.00 41 1015.4
20260507190016 65 68 3.0 8.0 0.00 0.00 0.00 36 1015.4
20260507185016 65 0 3.0 8.0 0.00 0.00 0.00 34 1015.5
20260507184036 64 45 2.0 6.0 0.00 0.00 0.00 36 1015.4
20260507183016 64 338 3.0 8.0 0.00 0.00 0.00 35 1015.5
20260507182016 65 45 2.0 9.0 0.00 0.00 0.00 35 1015.5
20260507181016 64 45 2.0 6.0 0.00 0.00 0.00 34 1015.6
20260507180016 65 248 4.0 10.0 0.00 0.00 0.00 37 1015.8
20260507175037 65 248 3.0 13.0 0.00 0.00 0.00 43 1016.0
20260507174056 64 0 3.0 11.0 0.00 0.00 0.00 37 1016.1
20260507173016 64 68 2.0 5.0 0.00 0.00 0.00 37 1016.1
20260507172016 62 0 2.0 5.0 0.00 0.00 0.00 33 1016.3
20260507171016 63 338 3.0 9.0 0.00 0.00 0.00 34 1016.4
20260507170016 63 248 3.0 7.0 0.00 0.00 0.00 37 1016.6
20260507165016 63 293 3.0 7.0 0.00 0.00 0.00 32 1016.6
20260507164016 63 315 3.0 8.0 0.00 0.00 0.00 37 1016.9
20260507163116 62 68 2.0 8.0 0.00 0.00 0.00 35 1016.9
20260507162016 62 23 2.0 10.0 0.00 0.00 0.00 33 1017.1
20260507161016 62 248 4.0 12.0 0.00 0.00 0.00 34 1017.2
20260507160036 62 45 3.0 8.0 0.00 0.00 0.00 42 1017.2
20260507155016 61 248 3.0 10.0 0.00 0.00 0.00 43 1017.1
20260507154016 61 248 4.0 10.0 0.00 0.00 0.00 43 1017.1
20260507153036 61 270 3.0 7.0 0.00 0.00 0.00 39 1017.0
20260507152036 60 45 3.0 7.0 0.00 0.00 0.00 37 1017.1
20260507151016 60 45 3.0 10.0 0.00 0.00 0.00 37 1017.1
20260507150016 60 338 2.0 8.0 0.00 0.00 0.00 40 1017.2
20260507145016 60 45 2.0 7.0 0.00 0.00 0.00 40 1017.0
20260507144016 60 45 2.0 7.0 0.00 0.00 0.00 45 1017.2
20260507143036 59 23 1.0 5.0 0.00 0.00 0.00 44 1017.3
20260507142016 59 0 1.0 5.0 0.00 0.00 0.00 48 1017.2
20260507141016 59 338 2.0 8.0 0.00 0.00 0.00 47 1017.0
20260507140016 58 68 1.0 5.0 0.00 0.00 0.00 50 1017.1
20260507135036 57 338 2.0 7.0 0.00 0.00 0.00 52 1017.2
20260507134016 56 315 1.0 6.0 0.00 0.00 0.00 53 1017.1
20260507133036 55 0.0 0.0 0.00 0.00 0.00 59 1017.0
20260507132016 54 0.0 0.0 0.00 0.00 0.00 61 1017.1
20260507131016 53 0.0 0.0 0.00 0.00 0.00 65 1017.0
20260507130036 52 0.0 0.0 0.00 0.00 0.00 72 1017.1
20260507125016 51 0.0 1.0 0.00 0.00 0.00 77 1017.1
20260507124016 49 0.0 1.0 0.00 0.00 0.00 83 1017.0
20260507123016 48 0.0 0.0 0.00 0.00 0.00 87 1016.9
20260507122016 46 0.0 0.0 0.00 0.00 0.00 89 1016.9
20260507121056 45 0.0 0.0 0.00 0.00 0.00 89 1016.9
20260507120016 44 0.0 0.0 0.00 0.00 0.00 89 1017.0
20260507115036 42 0.0 0.0 0.00 0.00 0.00 88 1016.9
20260507114016 41 0.0 0.0 0.00 0.00 0.00 86 1017.0
20260507113016 41 0.0 0.0 0.00 0.00 0.00 84 1017.0
20260507112016 41 0.0 0.0 0.00 0.00 0.00 84 1016.8
20260507111016 41 0.0 0.0 0.00 0.00 0.00 84 1016.8
20260507110036 41 0.0 0.0 0.00 0.00 0.00 83 1016.7
20260507105016 41 0.0 0.0 0.00 0.00 0.00 83 1016.6
20260507104016 42 0.0 0.0 0.00 0.00 0.00 83 1016.5